Location: Washington
(38.8950°N, 77.0367°W)
Time: 18:31:06
(UTC-04:00)

N. Korean satellite - Visible Passes

Search period start: 28 July 2014 00:00
Search period end: 07 August 2014 00:00
Orbit: 487 x 557 km, 97.3° (Epoch: 27 July)

Date Brightness Start Highest point End Pass type
(mag) Time Alt. Az. Time Alt. Az. Time Alt. Az.
28 Jul 9.6 21:50:54 10° SW 21:53:08 15° W 21:55:23 10° WNW visible
29 Jul 9.2 21:37:14 10° SW 21:40:11 21° W 21:43:13 10° NW visible
30 Jul 8.7 21:23:52 10° SSW 21:27:16 30° W 21:30:46 10° NW visible
31 Jul 8.0 21:10:42 10° S 21:14:23 43° W 21:18:10 10° NNW visible
01 Aug 7.3 20:57:40 10° S 21:01:30 64° W 21:05:27 10° NNW visible
02 Aug 6.8 20:44:46 10° SSE 20:48:39 87° ENE 20:52:38 10° N visible
04 Aug 9.7 21:55:27 10° WSW 21:57:23 13° W 21:59:21 10° WNW visible
05 Aug 9.4 21:41:35 10° SW 21:44:25 19° W 21:47:16 10° NW visible
06 Aug 8.9 21:28:07 10° SSW 21:31:27 27° W 21:34:51 10° NW visible
